Wind_Speed
21 18 16 15 14 15 16 16 18 19 21 22 22 22 22 23 25 27 28 29 29 30 30 32 32 32 31 32 33 35 36 37 39 40 40 41 42 43 45 45 45 45 45
22 21 18 17 17 17 17 18 19 21 23 25 26 26 26 26 27 29 30 31 31 31 32 33 34 33 33 34 35 37 39 40 42 42 43 45 47 50 51 50 50 50 50
22 29 24 21 21 21 21 21 22 23 26 27 29 30 30 30 29 29 31 32 32 32 34 34 35 35 36 37 38 40 42 43 45 46 48 51 54 55 56 55 55 56 55
27 26 29 26 24 24 25 25 25 27 30 30 32 33 33 33 32 32 32 33 34 34 36 36 37 37 39 40 41 43 45 48 50 52 55 57 58 59 60 60 60 60 59
29 27 29 29 27 27 27 28 29 31 32 34 38 39 36 35 35 34 34 35 35 37 38 38 39 40 42 43 45 48 50 53 56 58 60 61 63 63 65 65 65 65 65
31 28 30 30 29 29 32 32 33 35 36 38 39 41 40 37 35 35 36 37 38 39 40 41 42 43 45 47 50 53 56 59 61 63 65 66 67 67 68 68 69 69 68
34 33 33 35 31 32 34 36 39 40 42 43 43 46 39 37 37 37 39 39 40 41 43 43 45 47 50 52 55 58 61 64 66 68 69 69 69 69 70 71 72 72 73
36 34 40 39 39 38 39 41 43 45 45 46 47 49 38 38 39 39 40 42 42 44 46 48 50 52 55 58 62 64 67 69 70 71 70 70 71 72 72 73 74 75 75
42 41 40 38 37 39 41 44 46 45 46 48 50 39 37 39 39 40 41 43 45 48 50 52 54 57 59 62 65 67 69 70 71 71 72 72 72 74 75 76 78 80 81
52 43 43 37 42 45 46 47 49 49 50 49 46 38 38 39 40 42 44 46 48 51 54 56 59 62 65 68 69 69 70 72 72 72 73 74 77 80 83 86 88 89 90
50 47 44 44 45 46 50 52 53 54 53 41 34 37 41 41 42 44 46 49 52 55 58 62 65 68 70 70 70 71 73 73 74 77 80 84 86 89 91 92 93 93 94
42 44 46 46 48 53 57 58 55 47 31 31 35 37 42 44 45 46 49 52 55 58 62 66 69 69 70 71 73 74 75 77 81 84 88 91 94 95 96 96 96 96 95
48 47 47 52 52 59 59 47 40 28 30 33 38 40 44 47 49 50 53 55 58 61 63 65 66 68 71 73 75 77 81 86 88 91 94 96 97 98 98 97 95 90 83
50 54 57 55 61 65 54 29 26 28 33 37 40 43 47 49 52 54 57 61 62 65 66 66 67 70 73 75 80 85 89 93 95 96 98 99 100 99 96 88 81 76 71
55 61 63 62 50 26 25 27 29 32 35 40 42 45 49 51 55 59 63 65 68 67 66 68 72 75 79 84 88 91 94 96 99 101 101 100 97 91 85 79 75 72 67
39 35 28 28 30 27 26 30 33 35 39 44 44 47 51 56 60 63 67 67 68 70 71 74 77 82 86 90 93 96 98 102 103 101 96 90 85 81 78 76 73 68 63
45 42 24 22 27 27 30 33 35 38 43 46 47 51 55 60 64 65 67 67 70 73 75 77 82 86 89 92 96 100 103 101 97 91 86 82 79 75 70 64 57 53 51
47 44 32 21 28 31 33 36 38 42 46 48 51 55 60 63 65 66 67 70 73 76 80 82 85 88 93 98 102 99 97 92 87 81 77 74 67 62 59 58 56 55 52
44 31 26 27 32 34 37 39 42 45 48 51 55 59 62 64 64 66 70 72 76 80 84 86 90 94 98 99 94 90 84 79 78 73 66 64 63 63 61 58 54 52 51
42 36 30 31 35 37 39 41 44 47 51 56 59 62 63 63 66 69 72 77 80 83 87 91 96 97 94 88 83 79 73 71 66 65 65 62 53 49 48 47 45 44 44
22 27 31 35 38 39 41 43 46 51 55 59 62 61 63 66 69 73 77 81 83 87 92 97 96 90 81 76 74 71 67 65 59 51 45 43 43 46 47 46 44 42 42
28 31 34 39 38 40 43 46 50 55 58 60 59 62 66 69 73 77 80 83 88 93 97 95 86 78 74 72 68 65 58 51 42 32 31 38 45 43 40 36 34 34 33
30 33 36 37 39 43 47 49 54 57 58 58 60 65 68 72 76 79 82 87 92 95 90 83 75 72 70 66 63 53 42 37 31 31 34 37 42 38 36 30 29 31 30
31 34 36 38 42 46 49 52 55 56 56 60 64 67 71 75 78 81 86 90 92 88 79 72 70 67 63 57 49 41 37 32 31 34 34 34 37 31 26 28 29 30 29
32 35 39 42 46 48 52 53 54 55 59 64 67 70 74 76 80 85 88 91 88 77 70 67 63 59 52 46 41 37 33 30 29 31 32 32 34 26 23 25 28 29 30
35 39 42 44 48 50 50 51 54 58 62 65 69 73 75 79 83 87 91 87 76 67 64 59 55 45 37 35 32 30 27 26 26 25 29 26 28 25 17 23 24 25 26
Wind_Direction
271 264 267 274 283 290 296 302 307 309 311 312 312 310 307 304 302 300 298 298 299 302 304 306 302 297 293 290 287 287 289 290 290 291 292 293 294 296 296 294 294 294 294
267 269 268 276 284 293 302 307 311 315 317 316 315 311 307 305 303 301 299 298 298 300 301 302 298 295 290 288 287 288 288 289 289 291 292 293 295 295 295 294 293 292 292
254 264 272 275 281 289 295 299 305 311 314 313 313 311 309 306 302 299 298 298 297 298 298 297 294 292 289 287 287 288 289 291 292 292 294 294 294 294 293 293 292 291 290
250 263 266 274 279 285 289 293 298 306 309 311 311 310 309 306 301 298 297 296 295 294 295 295 292 289 288 288 289 290 292 293 293 293 293 293 293 292 292 290 289 289 287
247 253 262 270 275 281 285 288 292 302 305 309 311 309 306 305 301 296 294 294 291 291 293 293 291 290 289 290 291 292 293 294 294 294 294 294 292 291 290 289 288 287 285
248 251 261 268 274 279 284 285 290 296 298 303 306 308 301 302 299 296 294 293 290 291 292 291 289 289 290 292 293 294 295 295 295 295 295 294 292 290 288 287 286 285 284
244 248 254 258 268 275 278 281 287 292 295 298 302 306 296 297 297 295 294 292 291 291 291 291 290 290 294 295 295 295 296 297 298 297 295 292 291 289 289 287 286 285 284
240 244 254 265 264 265 274 278 285 290 295 295 298 299 294 297 295 293 292 292 291 292 292 292 292 294 296 297 298 300 300 300 298 295 294 293 291 290 289 287 286 284 283
241 247 256 263 266 272 274 278 284 288 291 292 296 291 294 293 292 291 291 291 292 292 293 294 295 296 299 299 300 300 299 297 295 295 294 293 291 290 289 287 285 284 282
245 244 255 256 266 272 277 281 282 284 289 283 288 293 291 291 291 291 292 292 292 293 295 297 298 300 300 300 301 300 298 296 296 295 294 293 292 290 289 288 287 285 283
242 246 251 258 264 270 277 279 282 287 287 281 290 291 290 292 291 292 293 293 295 296 299 301 302 302 302 303 301 299 298 298 297 296 296 295 294 292 290 288 286 283 281
247 245 258 263 268 272 275 277 282 280 286 289 289 293 292 292 292 293 293 295 299 302 303 303 303 302 302 300 299 299 299 299 298 299 298 296 294 292 289 286 283 281 280
257 259 263 266 269 276 272 280 274 282 289 294 293 293 291 291 292 293 296 299 301 302 302 302 301 301 301 301 301 301 302 301 301 299 297 294 292 290 288 286 284 285 286
262 265 267 269 274 273 271 273 282 291 296 292 290 290 290 292 294 298 300 302 301 301 302 302 301 302 302 302 303 304 303 302 300 299 297 295 292 289 288 290 290 289 286
265 264 266 265 267 268 286 291 293 290 290 288 289 291 292 295 299 301 302 302 302 302 304 304 304 303 304 305 305 305 304 302 301 299 296 292 291 292 292 291 289 287 284
247 259 248 247 271 288 296 292 290 291 291 289 292 294 297 300 302 303 302 303 304 305 307 307 307 307 307 306 306 306 304 303 299 296 295 296 295 294 294 292 290 288 285
262 263 272 277 286 288 290 290 292 293 290 293 295 297 300 302 303 304 304 306 307 308 309 309 309 308 308 308 307 306 303 299 297 297 298 297 297 295 293 291 289 285 281
282 289 289 283 287 290 289 290 290 290 292 294 297 301 303 304 304 305 306 307 309 309 309 309 310 310 310 309 307 303 300 299 299 299 297 296 296 294 292 289 287 283 279
276 265 275 287 286 288 287 288 290 291 294 297 300 303 304 303 305 306 308 309 310 309 310 311 312 312 311 308 305 303 303 302 301 300 300 298 296 293 290 287 283 281 276
256 274 282 281 281 281 286 289 291 294 298 300 303 303 302 304 307 309 310 310 310 311 313 314 314 312 310 307 306 305 303 303 304 302 300 299 297 294 291 288 285 283 277
264 269 278 279 280 285 288 290 294 297 300 302 302 303 305 308 310 310 310 311 313 314 315 315 313 312 311 308 307 308 308 306 304 303 302 302 301 299 293 290 286 283 280
267 271 275 276 283 285 288 293 297 299 302 302 304 306 309 311 310 311 313 314 316 316 315 315 315 314 313 312 312 311 310 309 307 300 307 314 309 305 296 292 291 292 292
267 271 275 282 285 288 293 298 300 302 302 303 306 310 310 310 311 314 315 318 318 318 317 315 315 315 316 315 314 315 315 315 309 303 311 315 313 305 299 293 292 293 299
271 275 278 284 288 291 297 300 300 301 303 308 310 309 310 313 315 316 319 319 318 317 316 316 317 318 318 318 319 319 315 314 310 310 314 318 318 308 297 295 292 293 298
272 277 282 287 292 299 299 299 300 304 309 308 308 311 313 314 316 319 318 317 318 318 320 320 320 321 322 324 324 322 321 320 319 315 319 324 332 321 300 299 298 300 299
279 284 290 295 297 296 298 302 305 308 307 308 312 313 315 318 318 317 318 319 320 321 320 320 321 325 330 336 338 338 335 332 329 326 331 330 341 351 321 304 308 313 319
Height
5833 5832 5833 5833 5832 5832 5831 5830 5829 5828 5827 5826 5824 5822 5820 5819 5817 5816 5814 5813 5811 5808 5806 5804 5802 5800 5798 5796 5794 5792 5790 5788 5786 5784 5782 5779 5777 5774 5772 5770 5769 5767 5766
5829 5829 5829 5829 5828 5828 5827 5826 5825 5824 5823 5821 5820 5818 5817 5814 5812 5810 5809 5807 5804 5802 5800 5797 5795 5793 5791 5789 5786 5785 5782 5780 5778 5775 5773 5770 5768 5765 5762 5760 5758 5756 5755
5822 5824 5824 5824 5824 5823 5822 5821 5820 5819 5818 5817 5815 5814 5811 5809 5807 5804 5802 5800 5797 5795 5792 5790 5787 5785 5783 5781 5779 5776 5774 5771 5768 5766 5763 5760 5757 5754 5751 5748 5746 5744 5742
5815 5817 5818 5818 5818 5818 5818 5817 5816 5814 5813 5812 5810 5808 5805 5803 5800 5798 5795 5792 5790 5787 5784 5782 5779 5777 5775 5772 5769 5767 5764 5761 5758 5754 5751 5748 5745 5742 5739 5736 5733 5731 5729
5809 5811 5812 5813 5813 5812 5812 5811 5810 5809 5807 5805 5804 5802 5799 5796 5793 5790 5787 5785 5782 5779 5776 5773 5770 5768 5765 5762 5759 5756 5753 5750 5746 5742 5738 5734 5731 5727 5724 5721 5718 5716 5713
5803 5804 5805 5806 5806 5806 5805 5804 5803 5802 5800 5799 5797 5794 5792 5789 5786 5783 5780 5777 5774 5771 5767 5764 5761 5758 5755 5751 5747 5744 5740 5736 5732 5727 5723 5719 5715 5711 5707 5704 5702 5699 5696
5795 5796 5797 5798 5798 5799 5798 5796 5795 5795 5793 5791 5789 5787 5784 5781 5778 5775 5772 5769 5766 5762 5759 5755 5752 5748 5743 5738 5734 5729 5725 5721 5716 5711 5707 5702 5698 5693 5689 5686 5683 5680 5677
5786 5787 5788 5789 5790 5790 5790 5789 5788 5787 5785 5783 5780 5778 5775 5773 5769 5766 5763 5760 5756 5753 5749 5744 5740 5735 5730 5725 5719 5714 5709 5704 5698 5693 5688 5684 5679 5675 5670 5666 5663 5659 5656
5777 5778 5780 5781 5781 5782 5781 5781 5779 5778 5776 5774 5771 5769 5766 5763 5760 5757 5752 5749 5746 5742 5737 5732 5727 5722 5717 5711 5705 5699 5692 5687 5681 5675 5669 5664 5660 5655 5650 5645 5641 5636 5633
5768 5769 5772 5773 5773 5773 5773 5772 5770 5769 5767 5764 5762 5759 5756 5753 5750 5748 5743 5739 5735 5730 5725 5719 5713 5707 5702 5694 5688 5681 5674 5668 5662 5656 5649 5644 5638 5633 5627 5622 5616 5610 5606
5758 5759 5762 5765 5765 5765 5764 5762 5761 5759 5757 5753 5752 5750 5747 5743 5740 5736 5733 5729 5724 5718 5711 5704 5697 5690 5683 5675 5669 5662 5655 5649 5642 5635 5628 5621 5614 5607 5600 5593 5587 5581 5575
5749 5753 5757 5756 5756 5755 5753 5751 5751 5749 5747 5744 5742 5739 5737 5734 5729 5725 5721 5717 5712 5704 5696 5687 5679 5672 5664 5657 5650 5643 5636 5629 5621 5612 5604 5595 5586 5577 5570 5561 5554 5548 5543
5742 5745 5746 5746 5745 5745 5743 5742 5740 5739 5737 5735 5732 5728 5727 5723 5719 5714 5709 5704 5700 5693 5685 5674 5664 5655 5647 5638 5630 5622 5614 5605 5597 5588 5577 5565 5555 5546 5538 5529 5522 5517 5514
5732 5733 5734 5736 5735 5734 5734 5732 5731 5730 5727 5725 5722 5719 5716 5711 5707 5701 5695 5690 5685 5678 5671 5661 5651 5639 5630 5620 5611 5601 5590 5579 5569 5558 5548 5537 5526 5515 5505 5498 5494 5492 5490
5725 5724 5724 5724 5726 5725 5725 5725 5724 5720 5718 5716 5711 5707 5704 5699 5693 5687 5680 5673 5666 5661 5656 5644 5633 5623 5611 5601 5590 5579 5566 5553 5539 5527 5515 5504 5494 5485 5479 5475 5471 5467 5466
5716 5718 5717 5716 5717 5718 5716 5716 5714 5709 5707 5706 5699 5695 5691 5685 5679 5672 5665 5656 5647 5639 5634 5625 5614 5602 5592 5580 5567 5554 5541 5527 5511 5496 5483 5474 5466 5460 5455 5449 5446 5445 5444
5709 5709 5710 5709 5710 5709 5708 5706 5702 5699 5699 5693 5689 5684 5678 5672 5664 5656 5649 5640 5630 5620 5614 5608 5595 5582 5570 5556 5543 5527 5510 5496 5483 5471 5460 5450 5442 5438 5433 5428 5426 5425 5425
5699 5702 5702 5703 5703 5701 5699 5696 5692 5690 5687 5683 5678 5672 5665 5657 5649 5642 5633 5623 5613 5602 5595 5589 5576 5563 5547 5530 5516 5501 5485 5469 5457 5449 5440 5431 5425 5419 5415 5411 5410 5408 5408
5695 5697 5696 5695 5696 5692 5690 5687 5684 5680 5677 5671 5665 5658 5651 5644 5636 5627 5617 5607 5597 5587 5575 5565 5555 5539 5524 5504 5491 5474 5462 5449 5436 5427 5419 5412 5407 5402 5397 5393 5391 5390 5390
5688 5688 5689 5687 5686 5683 5680 5677 5674 5670 5664 5659 5652 5645 5638 5630 5622 5612 5601 5591 5581 5569 5555 5542 5529 5515 5497 5481 5464 5452 5446 5428 5420 5409 5401 5393 5389 5384 5380 5377 5376 5375 5374
5678 5681 5680 5680 5677 5674 5670 5668 5663 5658 5652 5645 5639 5632 5623 5614 5604 5594 5585 5574 5561 5549 5534 5521 5506 5491 5475 5462 5447 5435 5423 5414 5405 5394 5389 5381 5378 5372 5366 5364 5362 5360 5358
5675 5674 5672 5672 5668 5666 5661 5656 5651 5646 5639 5633 5625 5617 5608 5598 5590 5579 5567 5555 5541 5526 5513 5497 5481 5467 5454 5441 5429 5417 5406 5398 5393 5385 5382 5376 5365 5360 5354 5352 5350 5348 5346
5667 5666 5665 5662 5659 5656 5650 5644 5639 5633 5628 5620 5612 5603 5594 5585 5575 5563 5551 5535 5520 5504 5488 5475 5462 5448 5436 5423 5414 5404 5395 5388 5382 5378 5375 5369 5358 5351 5344 5343 5341 5339 5337
5658 5659 5656 5652 5649 5645 5640 5633 5628 5623 5615 5606 5598 5591 5581 5569 5558 5547 5534 5519 5504 5489 5474 5459 5445 5434 5423 5412 5401 5394 5388 5383 5377 5370 5366 5361 5351 5343 5339 5336 5334 5331 5329
5651 5649 5646 5642 5638 5632 5628 5623 5617 5609 5601 5594 5586 5576 5566 5556 5543 5531 5520 5505 5489 5472 5456 5443 5432 5421 5411 5402 5394 5388 5382 5376 5372 5364 5359 5353 5346 5339 5334 5330 5327 5325 5323
5642 5639 5635 5631 5627 5622 5617 5611 5604 5597 5591 5582 5572 5562 5552 5539 5528 5517 5503 5487 5471 5458 5447 5436 5425 5414 5406 5399 5391 5384 5378 5372 5367 5362 5356 5350 5343 5337 5332 5327 5324 5321 5319